QPF
0.00 0.00 0.00 0.00 0.00 0.00 0.00 0.00 0.00 0.00 0.00 0.00 0.00 0.00 0.00 0.00 0.00 0.00 0.00 0.00 0.00 0.00 0.00 0.00 0.02 0.01 0.00 0.00 0.01 0.00 0.00 0.00 0.00 0.00 0.00 0.00 0.00 0.00 0.00 0.00 0.00 0.00 0.00
0.00 0.00 0.00 0.00 0.00 0.00 0.00 0.00 0.00 0.00 0.00 0.00 0.00 0.00 0.00 0.00 0.00 0.00 0.00 0.00 0.00 0.00 0.00 0.00 0.03 0.03 0.02 0.03 0.01 0.00 0.00 0.00 0.00 0.00 0.00 0.00 0.00 0.00 0.00 0.00 0.00 0.00 0.00
0.00 0.00 0.00 0.00 0.00 0.00 0.00 0.00 0.00 0.00 0.00 0.00 0.00 0.00 0.00 0.00 0.00 0.00 0.00 0.00 0.00 0.00 0.00 0.01 0.00 0.01 0.06 0.07 0.04 0.00 0.00 0.00 0.00 0.00 0.00 0.00 0.00 0.00 0.00 0.00 0.00 0.00 0.00
0.00 0.00 0.00 0.00 0.00 0.00 0.00 0.00 0.00 0.00 0.00 0.00 0.00 0.00 0.00 0.00 0.00 0.00 0.00 0.00 0.00 0.00 0.00 0.00 0.03 0.08 0.03 0.07 0.01 0.00 0.00 0.00 0.00 0.00 0.00 0.00 0.00 0.00 0.00 0.00 0.00 0.00 0.00
0.00 0.00 0.00 0.00 0.00 0.00 0.00 0.00 0.00 0.00 0.00 0.00 0.00 0.00 0.00 0.00 0.00 0.00 0.00 0.00 0.00 0.00 0.00 0.00 0.03 0.06 0.04 0.05 0.01 0.02 0.00 0.00 0.00 0.00 0.00 0.00 0.00 0.00 0.00 0.00 0.00 0.00 0.00
0.00 0.00 0.00 0.00 0.00 0.00 0.00 0.00 0.00 0.00 0.00 0.00 0.00 0.00 0.00 0.00 0.00 0.00 0.00 0.00 0.00 0.00 0.00 0.00 0.00 0.01 0.00 0.00 0.00 0.03 0.01 0.00 0.00 0.00 0.00 0.00 0.00 0.00 0.00 0.00 0.00 0.00 0.00
0.00 0.00 0.00 0.00 0.00 0.00 0.00 0.00 0.00 0.00 0.00 0.00 0.00 0.00 0.00 0.00 0.00 0.00 0.00 0.00 0.00 0.00 0.00 0.00 0.00 0.00 0.00 0.00 0.00 0.00 0.01 0.00 0.00 0.00 0.00 0.00 0.00 0.00 0.00 0.00 0.00 0.00 0.00
0.00 0.00 0.00 0.00 0.00 0.00 0.00 0.00 0.00 0.00 0.00 0.00 0.00 0.00 0.00 0.00 0.00 0.00 0.00 0.00 0.00 0.00 0.00 0.00 0.00 0.00 0.00 0.00 0.00 0.00 0.00 0.00 0.00 0.00 0.00 0.00 0.00 0.00 0.00 0.00 0.00 0.00 0.00
0.00 0.00 0.00 0.00 0.00 0.00 0.00 0.00 0.00 0.00 0.00 0.00 0.00 0.00 0.00 0.00 0.00 0.00 0.00 0.00 0.00 0.00 0.00 0.00 0.00 0.00 0.00 0.00 0.00 0.00 0.00 0.00 0.00 0.00 0.00 0.00 0.00 0.00 0.00 0.00 0.00 0.00 0.00
0.00 0.00 0.00 0.00 0.00 0.00 0.00 0.00 0.00 0.00 0.00 0.00 0.00 0.00 0.00 0.00 0.00 0.00 0.00 0.00 0.00 0.00 0.00 0.00 0.00 0.00 0.00 0.00 0.00 0.00 0.00 0.00 0.00 0.00 0.00 0.00 0.00 0.00 0.00 0.00 0.00 0.00 0.00
0.00 0.00 0.00 0.00 0.00 0.00 0.00 0.00 0.00 0.00 0.00 0.00 0.00 0.00 0.00 0.00 0.00 0.00 0.00 0.00 0.00 0.00 0.00 0.00 0.00 0.00 0.00 0.00 0.00 0.00 0.00 0.00 0.00 0.00 0.00 0.00 0.00 0.00 0.00 0.00 0.00 0.00 0.00
0.00 0.00 0.00 0.00 0.00 0.00 0.00 0.00 0.00 0.00 0.00 0.00 0.00 0.00 0.00 0.00 0.00 0.00 0.00 0.00 0.00 0.00 0.00 0.00 0.00 0.00 0.00 0.00 0.00 0.00 0.00 0.00 0.00 0.00 0.00 0.00 0.00 0.00 0.00 0.00 0.00 0.00 0.00
0.00 0.00 0.00 0.00 0.00 0.00 0.00 0.00 0.00 0.00 0.00 0.00 0.00 0.00 0.00 0.00 0.00 0.00 0.00 0.00 0.00 0.00 0.00 0.00 0.00 0.00 0.00 0.00 0.00 0.00 0.00 0.00 0.00 0.00 0.00 0.00 0.00 0.00 0.00 0.00 0.00 0.00 0.00
0.00 0.00 0.00 0.00 0.00 0.00 0.00 0.00 0.00 0.00 0.00 0.00 0.00 0.00 0.00 0.00 0.00 0.00 0.00 0.00 0.00 0.00 0.00 0.00 0.00 0.00 0.00 0.00 0.00 0.00 0.00 0.00 0.00 0.00 0.00 0.00 0.00 0.00 0.00 0.00 0.00 0.00 0.00
0.00 0.00 0.00 0.00 0.00 0.00 0.00 0.00 0.00 0.00 0.00 0.00 0.00 0.00 0.00 0.00 0.00 0.00 0.00 0.00 0.00 0.00 0.00 0.00 0.00 0.00 0.00 0.00 0.00 0.00 0.00 0.00 0.00 0.00 0.00 0.00 0.00 0.00 0.00 0.00 0.00 0.00 0.00
0.00 0.00 0.00 0.00 0.00 0.00 0.00 0.00 0.00 0.00 0.00 0.00 0.00 0.00 0.00 0.00 0.00 0.00 0.00 0.00 0.00 0.00 0.00 0.00 0.00 0.00 0.00 0.00 0.00 0.00 0.00 0.00 0.00 0.00 0.00 0.00 0.00 0.00 0.00 0.00 0.00 0.00 0.00
0.00 0.00 0.00 0.00 0.00 0.00 0.00 0.00 0.00 0.00 0.00 0.00 0.00 0.00 0.00 0.00 0.00 0.00 0.00 0.00 0.00 0.00 0.00 0.00 0.00 0.00 0.00 0.00 0.00 0.00 0.00 0.00 0.00 0.00 0.00 0.00 0.00 0.00 0.00 0.00 0.00 0.00 0.00
0.00 0.00 0.00 0.00 0.00 0.00 0.00 0.00 0.00 0.00 0.00 0.00 0.00 0.00 0.00 0.00 0.00 0.00 0.00 0.00 0.00 0.00 0.00 0.00 0.00 0.00 0.00 0.00 0.00 0.00 0.00 0.00 0.00 0.00 0.00 0.00 0.00 0.00 0.00 0.00 0.00 0.00 0.00
0.00 0.00 0.00 0.00 0.00 0.00 0.00 0.00 0.00 0.00 0.00 0.00 0.00 0.00 0.00 0.00 0.00 0.00 0.00 0.00 0.00 0.00 0.00 0.00 0.00 0.00 0.00 0.00 0.00 0.00 0.00 0.00 0.00 0.00 0.00 0.00 0.00 0.00 0.00 0.00 0.00 0.00 0.00
0.00 0.00 0.00 0.00 0.00 0.00 0.00 0.00 0.00 0.00 0.00 0.00 0.00 0.00 0.00 0.00 0.00 0.00 0.00 0.00 0.00 0.00 0.00 0.00 0.00 0.00 0.00 0.00 0.00 0.00 0.00 0.00 0.00 0.00 0.00 0.00 0.00 0.00 0.00 0.00 0.00 0.00 0.00
0.00 0.00 0.00 0.00 0.00 0.00 0.00 0.00 0.00 0.00 0.00 0.00 0.00 0.00 0.00 0.00 0.00 0.00 0.00 0.00 0.00 0.00 0.00 0.00 0.00 0.00 0.00 0.00 0.00 0.00 0.00 0.00 0.00 0.00 0.00 0.00 0.00 0.00 0.00 0.00 0.00 0.00 0.00
0.00 0.00 0.00 0.00 0.00 0.00 0.00 0.00 0.00 0.00 0.00 0.00 0.00 0.00 0.00 0.00 0.00 0.00 0.00 0.00 0.00 0.00 0.00 0.00 0.00 0.00 0.00 0.00 0.00 0.00 0.00 0.00 0.00 0.00 0.00 0.00 0.00 0.00 0.00 0.00 0.00 0.00 0.00
0.00 0.00 0.00 0.00 0.00 0.00 0.00 0.00 0.00 0.00 0.00 0.00 0.00 0.00 0.00 0.00 0.00 0.00 0.00 0.00 0.00 0.00 0.00 0.00 0.00 0.00 0.00 0.00 0.00 0.00 0.00 0.00 0.00 0.00 0.00 0.00 0.00 0.00 0.00 0.00 0.00 0.00 0.00
0.00 0.00 0.00 0.00 0.00 0.00 0.00 0.00 0.00 0.00 0.00 0.00 0.00 0.00 0.00 0.00 0.00 0.00 0.00 0.00 0.00 0.00 0.00 0.00 0.00 0.00 0.00 0.00 0.00 0.00 0.00 0.00 0.00 0.00 0.00 0.00 0.00 0.00 0.00 0.00 0.00 0.01 0.02
0.02 0.00 0.00 0.00 0.00 0.00 0.00 0.00 0.00 0.00 0.00 0.00 0.00 0.00 0.00 0.00 0.00 0.00 0.00 0.00 0.00 0.00 0.00 0.00 0.00 0.00 0.00 0.00 0.00 0.00 0.00 0.00 0.00 0.00 0.00 0.00 0.01 0.02 0.01 0.00 0.00 0.01 0.02
0.03 0.02 0.00 0.00 0.00 0.00 0.00 0.00 0.00 0.00 0.00 0.00 0.00 0.00 0.00 0.00 0.00 0.00 0.00 0.00 0.00 0.00 0.00 0.00 0.00 0.00 0.00 0.00 0.00 0.00 0.00 0.00 0.00 0.00 0.00 0.00 0.00 0.00 0.00 0.00 0.00 0.00 0.00
MSLP
1011.86 1012.78 1013.38 1013.90 1014.50 1015.26 1015.99 1016.59 1016.91 1017.40 1018.15 1018.50 1018.70 1018.96 1018.98 1019.30 1019.48 1019.62 1019.90 1020.08 1020.29 1020.56 1020.77 1020.84 1021.12 1021.10 1021.12 1021.23 1021.67 1021.85 1022.13 1022.36 1022.51 1022.26 1022.44 1022.68 1022.73 1022.77 1022.71 1022.77 1022.76 1022.94 1023.13
1011.21 1012.02 1012.65 1013.28 1013.94 1014.62 1015.32 1016.12 1016.59 1017.05 1017.67 1018.12 1018.38 1018.50 1018.76 1019.03 1019.12 1019.35 1019.65 1019.84 1020.08 1020.39 1020.62 1020.88 1020.96 1021.20 1021.12 1021.25 1021.48 1021.73 1021.90 1022.25 1022.53 1022.17 1022.22 1022.18 1022.66 1022.66 1022.67 1022.69 1022.68 1022.78 1022.97
1010.11 1011.01 1011.77 1012.37 1013.22 1013.88 1014.68 1015.40 1016.08 1016.65 1017.12 1017.69 1018.20 1018.49 1018.70 1019.01 1019.21 1019.37 1019.46 1019.61 1019.94 1020.23 1020.53 1020.82 1020.85 1021.14 1021.16 1021.32 1021.35 1021.62 1021.76 1021.81 1022.42 1022.52 1022.17 1022.12 1021.89 1022.31 1022.65 1022.73 1022.66 1022.86 1022.85
1009.36 1009.97 1010.73 1011.48 1012.06 1013.01 1013.94 1014.73 1015.46 1016.17 1016.74 1017.27 1017.71 1017.91 1017.95 1018.24 1018.54 1018.96 1019.09 1019.13 1019.70 1020.06 1020.35 1020.55 1020.68 1020.83 1020.90 1021.11 1021.16 1021.26 1021.64 1021.85 1021.92 1022.44 1022.52 1022.61 1022.50 1022.06 1021.88 1022.33 1022.44 1022.68 1022.73
1008.09 1008.74 1009.43 1010.22 1011.16 1012.31 1013.15 1014.01 1014.90 1015.56 1016.14 1016.73 1017.03 1017.41 1017.64 1017.90 1018.41 1018.78 1019.12 1019.21 1019.46 1019.77 1020.03 1020.26 1020.38 1020.66 1020.84 1020.96 1021.10 1021.34 1021.68 1021.89 1021.85 1022.03 1022.26 1022.48 1022.48 1022.54 1022.10 1021.72 1022.02 1022.39 1022.39
1007.00 1007.80 1008.82 1009.83 1010.53 1011.45 1012.42 1013.09 1013.96 1014.77 1015.46 1016.07 1016.57 1016.89 1017.10 1017.47 1017.98 1018.38 1018.73 1018.95 1019.20 1019.38 1019.72 1019.93 1020.22 1020.42 1020.55 1020.85 1020.90 1021.04 1021.52 1021.77 1022.02 1022.14 1022.27 1022.07 1022.01 1021.94 1022.08 1022.05 1022.08 1022.03 1021.80
1005.89 1006.76 1007.73 1008.59 1009.47 1010.18 1011.22 1012.26 1012.99 1013.85 1014.66 1015.24 1015.79 1016.32 1016.67 1017.10 1017.42 1017.86 1018.21 1018.44 1018.70 1018.91 1019.22 1019.55 1019.96 1020.08 1020.36 1020.52 1020.73 1021.08 1021.25 1021.56 1021.81 1022.16 1022.04 1022.22 1022.18 1022.23 1022.25 1022.20 1021.93 1021.86 1021.79
1004.79 1005.57 1006.28 1007.20 1008.14 1008.96 1010.00 1011.10 1011.98 1012.71 1013.56 1014.32 1014.89 1015.55 1016.04 1016.43 1016.81 1017.25 1017.47 1017.90 1018.16 1018.38 1018.60 1018.96 1019.28 1019.68 1019.99 1020.21 1020.50 1020.67 1020.98 1021.25 1021.63 1021.86 1022.07 1022.04 1022.15 1022.29 1022.26 1022.05 1021.99 1021.65 1021.58
1003.19 1003.98 1004.99 1005.92 1006.79 1007.79 1008.65 1009.76 1010.87 1011.82 1012.61 1013.22 1014.05 1014.70 1015.30 1015.77 1016.06 1016.45 1017.02 1017.45 1017.85 1018.04 1018.32 1018.50 1018.87 1019.23 1019.56 1019.83 1020.08 1020.39 1020.64 1020.98 1021.28 1021.51 1021.81 1021.96 1021.91 1022.09 1022.07 1022.22 1022.13 1021.86 1021.32
1002.04 1002.95 1003.77 1004.46 1005.30 1006.21 1007.46 1008.70 1009.79 1010.53 1011.36 1012.46 1013.16 1013.87 1014.37 1014.99 1015.49 1016.09 1016.38 1016.73 1017.20 1017.58 1017.80 1018.20 1018.42 1018.71 1019.03 1019.38 1019.77 1020.02 1020.28 1020.68 1020.86 1021.02 1021.38 1021.58 1021.55 1021.74 1021.81 1021.86 1021.97 1022.02 1021.78
1000.54 1001.34 1001.96 1002.83 1003.69 1004.99 1006.24 1007.16 1008.40 1009.49 1010.43 1011.35 1012.21 1012.88 1013.52 1014.06 1014.81 1015.35 1015.76 1016.18 1016.62 1017.00 1017.36 1017.73 1018.03 1018.35 1018.61 1018.86 1019.30 1019.56 1019.86 1020.24 1020.45 1020.68 1020.89 1021.04 1021.27 1021.22 1021.27 1021.48 1021.56 1021.56 1021.64
999.25 999.87 1000.61 1001.86 1002.83 1003.61 1004.64 1005.64 1006.80 1008.01 1008.95 1009.87 1011.02 1011.80 1012.57 1013.30 1013.86 1014.47 1014.98 1015.58 1015.96 1016.37 1016.78 1017.18 1017.49 1017.83 1018.09 1018.42 1018.80 1019.02 1019.19 1019.56 1019.72 1019.96 1020.31 1020.48 1020.62 1020.88 1020.95 1020.93 1020.98 1020.89 1020.96
998.74 999.27 1000.30 1000.86 1001.56 1002.50 1003.41 1004.31 1005.39 1006.37 1007.52 1008.70 1009.80 1010.73 1011.51 1012.34 1012.86 1013.39 1014.10 1014.76 1015.22 1015.60 1016.05 1016.53 1016.84 1017.27 1017.58 1017.89 1018.21 1018.44 1018.61 1018.83 1019.02 1019.16 1019.40 1019.64 1019.94 1020.08 1020.04 1020.20 1020.09 1020.10 1020.34
998.41 999.10 999.78 1000.10 1000.69 1001.50 1002.38 1003.22 1004.22 1005.36 1006.43 1007.55 1008.54 1009.51 1010.32 1010.95 1011.73 1012.45 1013.23 1013.86 1014.28 1014.80 1015.24 1015.63 1016.04 1016.52 1016.93 1017.26 1017.51 1017.81 1018.02 1018.13 1018.30 1018.47 1018.64 1018.84 1019.06 1019.19 1019.33 1019.45 1019.55 1019.59 1019.58
998.23 998.46 998.57 999.14 999.87 1000.68 1001.66 1002.68 1003.72 1004.67 1005.44 1006.54 1007.36 1008.11 1009.09 1010.03 1010.86 1011.67 1012.31 1012.98 1013.48 1013.91 1014.39 1014.91 1015.34 1015.81 1016.18 1016.42 1016.72 1017.00 1017.28 1017.43 1017.59 1017.72 1017.93 1018.04 1018.16 1018.38 1018.56 1018.67 1018.76 1019.03 1019.04
998.34 998.29 998.36 998.51 998.98 999.52 1000.29 1001.27 1002.44 1003.48 1004.66 1005.62 1006.30 1007.30 1008.28 1009.16 1009.92 1010.70 1011.42 1012.20 1012.72 1013.11 1013.72 1014.12 1014.55 1014.94 1015.19 1015.38 1015.78 1016.20 1016.46 1016.68 1016.85 1016.85 1017.00 1017.23 1017.46 1017.69 1017.91 1018.10 1018.30 1018.40 1018.21
998.75 998.42 997.98 997.67 997.78 998.28 999.19 1000.24 1001.17 1002.59 1003.76 1004.71 1005.65 1006.52 1007.49 1008.24 1008.96 1009.76 1010.52 1011.08 1011.72 1012.35 1012.85 1013.41 1013.72 1014.04 1014.42 1014.66 1015.02 1015.50 1015.85 1015.86 1015.98 1016.12 1016.20 1016.33 1016.34 1016.74 1016.99 1017.06 1017.28 1017.46 1017.45
998.50 997.92 997.37 996.78 996.78 997.22 998.18 999.81 1001.03 1001.76 1002.90 1004.00 1004.83 1005.69 1006.59 1007.40 1008.28 1009.00 1009.59 1010.20 1010.83 1011.35 1011.88 1012.44 1012.85 1013.28 1013.59 1014.04 1014.48 1014.94 1015.40 1015.24 1015.11 1015.22 1015.34 1015.56 1015.61 1015.87 1016.16 1016.27 1016.09 1015.93 1015.80
998.51 997.22 996.44 995.74 995.77 996.49 997.38 998.89 1000.18 1001.20 1002.24 1003.15 1003.88 1004.67 1005.60 1006.51 1007.38 1008.08 1008.72 1009.44 1010.13 1010.65 1011.02 1011.48 1011.95 1012.30 1012.64 1013.06 1013.52 1014.21 1014.51 1014.29 1014.19 1014.36 1014.54 1014.76 1014.90 1015.13 1015.50 1015.67 1015.25 1014.83 1014.58
997.70 996.29 995.17 994.55 995.02 995.88 997.00 998.18 999.38 1000.15 1000.89 1001.78 1002.72 1003.90 1004.79 1005.53 1006.27 1007.02 1007.75 1008.41 1009.13 1009.61 1010.17 1010.52 1010.84 1011.24 1011.59 1012.14 1012.61 1013.30 1013.50 1013.24 1013.24 1013.44 1013.60 1013.89 1014.12 1014.37 1014.67 1014.90 1014.68 1014.09 1013.81
996.96 995.08 994.18 994.24 994.76 995.47 996.51 997.72 998.81 999.13 999.90 1001.43 1002.43 1003.32 1004.01 1004.70 1005.34 1006.08 1006.86 1007.62 1008.32 1008.64 1009.16 1009.43 1009.77 1010.30 1010.75 1011.10 1011.54 1012.08 1012.50 1012.25 1012.19 1012.22 1012.24 1012.55 1012.91 1013.37 1013.76 1013.91 1013.88 1013.51 1013.43
997.71 996.07 995.48 995.15 995.27 995.74 996.53 997.51 998.33 999.14 1000.10 1001.00 1001.82 1002.66 1003.39 1004.06 1004.67 1005.42 1006.18 1006.91 1007.45 1007.95 1008.30 1008.62 1008.84 1009.07 1009.66 1010.16 1010.48 1010.97 1011.51 1011.52 1011.64 1011.45 1011.44 1011.73 1012.17 1012.59 1012.97 1013.35 1013.39 1013.23 1013.23
998.93 998.03 997.08 996.82 996.65 997.00 997.32 997.95 998.70 999.23 999.88 1000.60 1001.20 1001.94 1002.78 1003.46 1004.02 1004.85 1005.55 1006.23 1006.69 1006.90 1007.29 1007.50 1007.74 1007.96 1008.32 1008.88 1009.48 1010.01 1010.54 1010.96 1011.36 1011.06 1011.02 1011.33 1011.67 1012.07 1012.42 1012.52 1012.69 1012.77 1013.14
1000.26 999.36 998.32 997.92 998.12 998.41 998.97 998.91 999.45 999.34 1000.04 1000.10 1000.57 1001.26 1001.90 1002.66 1003.43 1004.32 1004.98 1005.32 1005.45 1005.91 1006.18 1006.47 1006.86 1007.18 1007.46 1007.88 1008.23 1009.28 1010.11 1010.63 1011.11 1011.16 1010.95 1011.25 1011.51 1011.74 1011.91 1012.06 1012.15 1012.32 1012.42
1001.52 1000.60 1000.00 999.59 999.52 999.56 999.70 1000.11 999.86 999.89 999.73 1000.39 1000.28 1000.68 1001.16 1001.92 1002.66 1003.62 1004.74 1004.75 1004.54 1005.01 1005.44 1005.74 1006.05 1006.45 1006.84 1007.06 1007.49 1007.94 1008.70 1009.41 1009.84 1010.31 1010.60 1010.77 1010.93 1011.16 1011.39 1011.47 1011.52 1011.54 1011.71
1002.68 1001.84 1001.18 1000.84 1000.93 1000.85 1001.01 1001.19 1001.07 1000.67 1000.60 1000.54 1000.74 1001.14 1001.39 1001.94 1002.22 1003.42 1004.84 1005.84 1006.00 1006.01 1005.86 1005.64 1005.86 1006.94 1007.09 1007.25 1007.72 1008.16 1008.51 1008.87 1009.35 1009.96 1010.10 1010.38 1010.53 1010.78 1011.11 1011.36 1011.52 1011.55 1011.57
Thickness
5780 5777 5775 5776 5774 5771 5769 5768 5769 5769 5766 5766 5767 5766 5766 5767 5766 5766 5766 5764 5762 5759 5759 5760 5757 5758 5759 5757 5753 5753 5750 5749 5750 5750 5748 5746 5747 5747 5748 5748 5749 5749 5747
5780 5778 5778 5778 5776 5773 5772 5769 5770 5771 5769 5767 5769 5771 5771 5771 5771 5769 5769 5767 5766 5763 5762 5761 5761 5761 5762 5760 5759 5757 5754 5753 5752 5750 5749 5742 5744 5749 5751 5751 5752 5751 5749
5783 5782 5780 5781 5779 5778 5775 5773 5773 5773 5773 5771 5769 5772 5773 5772 5771 5770 5771 5770 5769 5766 5765 5764 5765 5764 5764 5763 5762 5761 5759 5755 5754 5754 5752 5742 5742 5747 5752 5752 5754 5753 5752
5791 5790 5787 5784 5785 5783 5779 5777 5776 5775 5774 5774 5773 5773 5775 5772 5774 5774 5775 5774 5771 5769 5767 5768 5768 5768 5768 5767 5767 5765 5763 5760 5756 5755 5755 5753 5752 5748 5747 5755 5757 5756 5755
5799 5795 5794 5791 5788 5785 5783 5781 5778 5778 5778 5777 5778 5776 5776 5779 5780 5777 5774 5775 5774 5773 5770 5771 5772 5771 5770 5770 5769 5767 5764 5762 5762 5759 5756 5754 5755 5752 5752 5751 5755 5757 5758
5805 5802 5798 5793 5789 5789 5785 5785 5783 5782 5782 5781 5781 5780 5780 5781 5780 5778 5775 5776 5777 5777 5775 5774 5774 5774 5773 5772 5771 5771 5767 5765 5763 5762 5760 5760 5757 5756 5755 5753 5754 5754 5762
5808 5805 5799 5797 5794 5795 5794 5789 5787 5785 5785 5786 5785 5784 5785 5784 5783 5782 5781 5780 5780 5780 5780 5779 5777 5776 5776 5775 5773 5772 5771 5767 5766 5763 5764 5763 5762 5763 5761 5758 5758 5758 5765
5813 5811 5809 5806 5801 5799 5798 5796 5793 5791 5791 5790 5790 5789 5789 5789 5788 5788 5788 5785 5784 5784 5783 5782 5781 5779 5778 5778 5776 5775 5773 5771 5769 5767 5765 5766 5765 5764 5764 5763 5761 5760 5763
5822 5820 5817 5814 5809 5805 5804 5802 5799 5794 5794 5795 5793 5793 5793 5792 5793 5793 5792 5790 5788 5788 5785 5785 5783 5782 5781 5780 5779 5778 5776 5775 5773 5771 5769 5768 5769 5768 5768 5767 5767 5765 5760
5826 5824 5823 5822 5819 5815 5811 5806 5802 5800 5799 5795 5795 5796 5797 5796 5796 5794 5794 5794 5793 5790 5790 5787 5786 5786 5785 5783 5781 5780 5779 5777 5777 5776 5773 5772 5773 5771 5771 5771 5770 5769 5766
5834 5834 5835 5835 5830 5821 5816 5815 5809 5805 5802 5799 5798 5798 5799 5800 5798 5797 5797 5797 5796 5795 5792 5791 5789 5788 5787 5786 5785 5783 5781 5779 5779 5778 5777 5776 5775 5776 5777 5775 5774 5773 5771
5842 5844 5843 5836 5832 5830 5825 5822 5818 5814 5812 5809 5803 5802 5802 5801 5801 5800 5800 5799 5799 5798 5796 5794 5793 5791 5790 5788 5787 5785 5786 5783 5782 5782 5780 5779 5781 5778 5779 5780 5779 5780 5780
5837 5842 5837 5838 5838 5834 5831 5828 5825 5823 5819 5814 5809 5805 5804 5803 5805 5805 5805 5803 5802 5801 5800 5798 5795 5792 5790 5789 5789 5789 5789 5788 5788 5787 5786 5785 5784 5783 5785 5785 5786 5786 5784
5831 5833 5833 5838 5840 5840 5836 5833 5831 5827 5823 5819 5815 5811 5810 5811 5810 5809 5808 5807 5807 5804 5803 5802 5799 5796 5793 5792 5792 5791 5791 5791 5792 5791 5792 5791 5791 5791 5791 5790 5789 5790 5789
5824 5830 5837 5840 5840 5839 5838 5834 5830 5827 5827 5822 5821 5819 5816 5814 5812 5810 5810 5809 5809 5808 5806 5803 5802 5799 5797 5797 5796 5795 5794 5794 5794 5796 5796 5797 5799 5799 5799 5798 5797 5795 5793
5817 5827 5835 5840 5841 5845 5844 5843 5837 5834 5829 5825 5825 5822 5817 5815 5814 5813 5813 5810 5810 5810 5807 5805 5804 5802 5803 5803 5800 5800 5798 5798 5798 5799 5802 5803 5802 5802 5801 5800 5800 5800 5799
5805 5816 5829 5842 5850 5853 5852 5846 5845 5839 5832 5828 5825 5823 5820 5818 5817 5816 5815 5815 5813 5811 5808 5806 5806 5805 5805 5805 5803 5801 5802 5803 5803 5804 5806 5807 5811 5808 5808 5808 5804 5802 5800
5803 5814 5827 5843 5855 5861 5857 5849 5842 5840 5834 5828 5825 5825 5823 5820 5817 5817 5818 5817 5816 5814 5810 5809 5809 5807 5808 5807 5805 5803 5804 5806 5809 5810 5812 5812 5813 5814 5812 5811 5812 5813 5813
5798 5818 5834 5850 5858 5859 5859 5851 5843 5839 5833 5829 5829 5828 5826 5822 5820 5820 5819 5817 5815 5813 5813 5812 5812 5812 5812 5810 5810 5807 5809 5811 5813 5815 5816 5816 5816 5816 5812 5811 5813 5816 5817
5806 5828 5844 5858 5858 5858 5859 5851 5844 5842 5838 5837 5835 5831 5828 5826 5825 5823 5820 5820 5818 5816 5816 5817 5819 5817 5817 5815 5813 5811 5815 5816 5817 5819 5820 5818 5819 5818 5814 5813 5813 5814 5815
5812 5834 5848 5851 5855 5858 5856 5848 5845 5845 5846 5837 5834 5832 5831 5829 5828 5825 5823 5821 5819 5820 5820 5822 5823 5822 5822 5822 5819 5817 5819 5821 5821 5822 5824 5826 5822 5818 5815 5814 5816 5817 5818
5797 5818 5826 5836 5845 5851 5850 5845 5844 5846 5842 5837 5833 5830 5830 5830 5829 5827 5825 5823 5823 5821 5822 5822 5824 5828 5827 5824 5823 5821 5819 5824 5823 5824 5828 5828 5824 5819 5816 5812 5813 5812 5810
5784 5797 5810 5817 5828 5834 5838 5834 5836 5841 5839 5834 5833 5832 5831 5830 5831 5826 5825 5824 5826 5827 5825 5827 5827 5829 5831 5831 5826 5824 5822 5819 5820 5825 5826 5824 5821 5817 5814 5812 5810 5807 5803
5768 5784 5798 5806 5809 5815 5815 5822 5826 5824 5831 5834 5834 5833 5831 5829 5829 5828 5828 5829 5830 5829 5829 5829 5827 5827 5829 5830 5833 5826 5820 5815 5813 5814 5818 5817 5815 5813 5811 5809 5806 5803 5800
5752 5769 5780 5789 5794 5802 5807 5810 5814 5822 5823 5825 5832 5832 5832 5829 5828 5829 5826 5831 5834 5832 5831 5831 5829 5826 5827 5829 5829 5828 5824 5820 5816 5813 5812 5809 5808 5806 5805 5803 5802 5800 5796
5736 5751 5764 5773 5779 5786 5791 5795 5802 5810 5812 5816 5818 5820 5823 5823 5826 5818 5812 5803 5807 5808 5817 5823 5824 5820 5818 5817 5816 5815 5815 5814 5809 5806 5804 5801 5800 5798 5794 5791 5788 5788 5786